This is the latest recevied weather packets stored in our database for station/object WE3WEE. If no packets are shown the sender has not sent any weather packets the latest 10 day(s).
| Time | Temp. | Humidity | Pressure | Rain* | Wind** | Luminosity | Snow |
|---|---|---|---|---|---|---|---|
| 1777906053 | 15.56° C | 48% | 1011.7 hPa | 0 mm | - | - | - |
| 1777905749 | 15.56° C | 49% | 1012.8 hPa | 0 mm | - | - | - |
| 1777905446 | 15° C | 52% | 1012.8 hPa | 0 mm | - | - | - |
| 1777905144 | 14.44° C | 53% | 1012.8 hPa | 0 mm | - | - | - |
| 1777904840 | 15° C | 48% | 1012.8 hPa | 0 mm | - | - | - |
| 1777904538 | 15° C | 50% | 1012.8 hPa | 0 mm | - | - | - |
| 1777904235 | 14.44° C | 47% | 1012.8 hPa | 0 mm | - | - | - |
| 1777903932 | 14.44° C | 50% | 1012.8 hPa | 0 mm | - | - | - |
| 1777903629 | 14.44° C | 50% | 1012.8 hPa | 0 mm | - | - | - |
| 1777903323 | 14.44° C | 50% | 1012.8 hPa | 0 mm | - | - | - |
| 1777903021 | 13.89° C | 52% | 1012.8 hPa | 0 mm | - | - | - |
| 1777902717 | 13.89° C | 52% | 1012.8 hPa | 0 mm | - | - | - |
| 1777902415 | 13.33° C | 53% | 1012.8 hPa | 0 mm | - | - | - |
| 1777902111 | 13.33° C | 51% | 1012.8 hPa | 0 mm | - | - | - |
| 1777901810 | 12.78° C | 55% | 1012.8 hPa | 0 mm | - | - | - |
| 1777901507 | 12.78° C | 56% | 1012.8 hPa | 0 mm | - | - | - |
| 1777901204 | 12.78° C | 51% | 1012.8 hPa | 0 mm | - | - | - |
| 1777900902 | 12.22° C | 59% | 1012.8 hPa | 0 mm | - | - | - |
| 1777900599 | 11.67° C | 55% | 1012.8 hPa | 0 mm | - | - | - |
| 1777900296 | 11.11° C | 59% | 1012.8 hPa | 0 mm | - | - | - |
| 1777899992 | 11.11° C | 58% | 1012.8 hPa | 0 mm | - | - | - |
| 1777899689 | 10.56° C | 60% | 1012.8 hPa | 0 mm | - | - | - |
| 1777899387 | 10° C | 62% | 1012.8 hPa | 0 mm | - | - | - |
| 1777899084 | 10° C | 62% | 1012.8 hPa | 0 mm | - | - | - |
| 1777898781 | 10° C | 62% | 1012.8 hPa | 0 mm | - | - | - |
* Rain latest hour (hover to see other rain measurements)
** Current wind speed in m/s (hover to see current wind gust speed)